GAOFEN-12 01
Last updated on Mon Jun 22 2026 00:02:52 GMT+0000 (Coordinated Universal Time)
1 44819U 19082A 26172.54051442 .00000258 00000+0 40353-4 0 9992
2 44819 97.8101 178.8051 0002130 65.6428 294.5007 14.80461284354738
Next 0 passes for location: London (51.5072 / 0.1276)
No passes found over London.